This is the latest recevied weather packets stored in our database for station/object N5CSU. If no packets are shown the sender has not sent any weather packets the latest 10 day(s).
| Time | Temp. | Humidity | Pressure | Rain* | Wind** | Luminosity | Snow |
|---|---|---|---|---|---|---|---|
| 1777764627 | 23.33° C | 38% | 1019.1 hPa | 0 mm | - | 5 W/m² | - |
| 1777764323 | 23.33° C | 37% | 1018.8 hPa | 0 mm | - | 5 W/m² | - |
| 1777764021 | 23.33° C | 39% | 1019 hPa | 0 mm | - | 5 W/m² | - |
| 1777763718 | 23.33° C | 38% | 1019 hPa | 0 mm | - | 5 W/m² | - |
| 1777763114 | 23.89° C | 36% | 1019.1 hPa | 0 mm | - | 7 W/m² | - |
| 1777761300 | 23.89° C | 35% | 1019.2 hPa | 0 mm | - | 6 W/m² | - |
| 1777760998 | 23.89° C | 40% | 1019.2 hPa | 0 mm | - | 6 W/m² | - |
| 1777760695 | 23.89° C | 35% | 1019.3 hPa | 0 mm | - | 6 W/m² | - |
| 1777760391 | 23.89° C | 36% | 1019.2 hPa | 0 mm | - | 6 W/m² | - |
| 1777760087 | 23.89° C | 38% | 1019.3 hPa | 0 mm | - | 7 W/m² | - |
| 1777759784 | 23.89° C | 34% | 1019.3 hPa | 0 mm | - | 7 W/m² | - |
| 1777759480 | 23.89° C | 36% | 1019.1 hPa | 0 mm | - | 8 W/m² | - |
| 1777759177 | 23.89° C | 35% | 1019.3 hPa | 0 mm | - | 10 W/m² | - |
| 1777758874 | 23.89° C | 34% | 1019.3 hPa | 0 mm | - | 8 W/m² | - |
| 1777758571 | 23.89° C | 33% | 1019.5 hPa | 0 mm | - | 9 W/m² | - |
| 1777758268 | 23.89° C | 37% | 1019.4 hPa | 0 mm | - | 12 W/m² | - |
| 1777757661 | 23.89° C | 39% | 1019.6 hPa | 0 mm | - | 27 W/m² | - |
| 1777757361 | 23.89° C | 37% | 1019.6 hPa | 0 mm | - | 10 W/m² | - |
| 1777757059 | 23.89° C | 36% | 1019.6 hPa | 0 mm | - | 10 W/m² | - |
| 1777756756 | 23.89° C | 34% | 1019.7 hPa | 0 mm | - | 9 W/m² | - |
| 1777756149 | 24.44° C | 35% | 1019.9 hPa | 0 mm | - | 15 W/m² | - |
| 1777755846 | 24.44° C | 37% | 1019.9 hPa | 0 mm | - | 11 W/m² | - |
| 1777755543 | 23.89° C | 38% | 1020.1 hPa | 0 mm | - | 33 W/m² | - |
| 1777755239 | 23.89° C | 39% | 1019.9 hPa | 0 mm | - | 28 W/m² | - |
| 1777754331 | 23.89° C | 33% | 1020.2 hPa | 0 mm | - | 10 W/m² | - |
* Rain latest hour (hover to see other rain measurements)
** Current wind speed in m/s (hover to see current wind gust speed)